Location: Newark
(34.1333°N, 7.9667°W)
Time: 05:54:46
(UTC+00:00)

AAUSAT CUBESAT 2 - Visible Passes

Search period start: 08 June 2023 00:00
Search period end: 18 June 2023 00:00
Orbit: 549 x 562 km, 97.6° (Epoch: 07 June)

Date Brightness Start Highest point End Pass type
(mag) Time Alt. Az. Time Alt. Az. Time Alt. Az.
08 Jun ? 04:36:35 10° NNE 04:40:25 45° E 04:44:15 10° S visible
09 Jun ? 04:33:59 10° NNE 04:37:47 41° E 04:41:34 10° S visible
10 Jun ? 04:31:23 10° NNE 04:35:07 38° E 04:38:51 10° SSE visible
11 Jun ? 04:28:45 10° NNE 04:32:27 35° E 04:36:07 10° SSE visible
12 Jun ? 04:26:07 10° NNE 04:29:44 33° E 04:33:21 10° SSE visible
13 Jun ? 04:23:28 10° NE 04:27:01 30° E 04:30:33 10° SSE visible
14 Jun ? 04:20:49 10° NE 04:24:16 28° E 04:27:43 10° SSE visible
15 Jun ? 04:18:08 10° NE 04:21:31 26° E 04:24:53 10° SSE visible
16 Jun ? 04:15:27 10° NE 04:18:44 24° E 04:22:00 10° SSE visible
17 Jun ? 04:12:46 10° NE 04:15:56 22° E 04:19:05 10° SSE visible
